GFSFLT2_sfc_thetae_159.txt.gz
Theta_e
355 358 361 361 360 360 359 358 358 359 360 360 359 357 357 356 357 357 357 357 357 356 356 358 357 354 353 352 353 353 353 353
353 357 359 360 360 360 359 358 358 358 359 360 359 358 357 357 356 357 357 356 356 355 355 356 356 355 354 354 353 353 353 353
353 355 357 359 359 359 359 358 357 358 359 360 359 359 358 356 356 356 356 356 357 356 355 354 354 354 353 352 352 352 352 351
354 354 355 355 357 359 358 358 357 357 358 358 358 358 357 356 356 355 356 356 356 356 356 355 354 353 352 352 351 351 351 350
352 353 353 354 355 354 354 358 357 357 357 357 357 357 355 355 355 355 353 354 354 354 354 354 354 353 352 351 350 350 350 349
348 350 353 353 352 351 350 354 356 356 357 356 356 356 352 347 348 349 350 352 354 354 353 353 353 352 352 351 351 350 350 340
343 346 350 352 350 351 352 350 349 351 350 349 348 348 344 343 343 348 350 353 354 354 354 353 353 353 351 342 340 343 334 332
343 345 348 349 349 348 349 350 349 347 347 346 345 344 341 342 339 343 341 341 341 348 344 345 342 340 339 338 337 333 330 329
342 345 345 346 347 345 348 348 347 346 343 342 343 342 340 337 335 336 339 339 339 339 338 338 335 333 333 333 333 331 330 329
338 342 344 343 342 342 347 343 342 342 342 341 340 340 339 336 334 335 338 339 338 338 336 334 334 333 331 332 332 332 334 334
335 337 340 338 334 339 338 337 339 338 339 337 336 338 339 335 332 333 335 338 339 338 337 335 334 333 332 332 334 335 336 337
332 334 334 336 335 336 334 336 335 337 336 335 335 337 339 338 334 332 335 338 338 339 337 335 334 334 333 333 332 334 334 334
337 336 337 339 335 334 332 333 335 335 335 337 336 336 340 340 339 338 340 342 341 338 338 338 336 332 330 329 329 331 333 338
333 335 338 341 342 340 337 335 338 341 339 339 339 340 341 343 344 344 344 343 344 343 342 338 335 332 330 330 332 335 335 337
333 332 333 335 334 335 343 344 344 343 347 346 344 345 346 345 347 345 345 346 344 342 339 338 333 331 328 326 333 332 331 335
333 331 328 330 332 333 333 340 343 344 344 347 348 349 350 349 349 346 344 344 342 340 337 337 335 331 328 326 325 325 327 333
332 332 331 330 332 332 337 340 347 345 346 346 345 344 344 345 347 346 342 342 340 338 337 336 333 331 329 327 323 321 318 324
329 332 327 329 328 335 336 339 344 344 343 341 342 343 345 347 346 343 341 337 335 336 336 335 335 331 328 329 329 326 321 321
326 329 326 328 326 328 332 333 342 339 337 340 340 337 337 339 338 337 336 334 331 329 328 329 327 330 333 325 332 332 329 329

GFSFLT2_sfc_thetae_162.txt.gz
Theta_e
355 358 360 361 360 358 358 358 357 358 358 358 358 357 356 356 356 357 357 357 358 357 357 357 357 353 353 352 352 353 353 353
353 357 359 360 360 359 358 357 358 359 359 359 358 357 356 356 355 356 356 356 356 355 355 356 355 354 354 353 353 353 352 351
352 356 357 359 360 358 357 358 358 358 359 359 358 358 356 355 355 355 356 355 355 354 354 354 353 354 353 353 352 352 352 349
352 354 356 355 357 359 357 357 357 357 359 359 358 357 356 355 355 355 355 355 355 355 354 354 354 353 352 352 352 351 351 349
351 352 353 354 354 353 354 357 357 357 358 358 357 356 355 354 354 353 352 354 352 353 353 353 353 353 352 351 351 351 350 349
349 350 352 352 352 350 350 353 356 356 356 356 356 355 352 347 349 350 349 349 352 352 353 352 352 352 351 351 350 349 348 342
344 348 350 350 348 350 352 350 350 350 350 349 349 349 346 345 346 348 349 352 352 353 353 353 352 352 351 345 342 343 337 335
343 345 349 349 348 348 348 348 347 348 348 346 346 346 344 344 344 345 343 342 344 345 346 346 343 341 340 339 338 337 335 334
341 344 346 348 347 347 347 346 347 348 345 343 344 344 341 340 339 338 340 341 341 342 341 341 340 339 337 336 335 335 336 335
340 343 345 347 347 348 345 345 345 344 344 343 342 342 342 338 336 336 337 340 341 341 340 339 338 338 337 336 336 336 337 338
341 341 343 345 346 347 344 343 342 343 343 341 340 340 341 338 336 334 334 337 339 341 341 339 339 339 338 337 337 338 339 340
338 341 341 343 340 343 342 341 340 340 340 339 338 339 340 340 336 334 332 335 339 342 342 341 339 339 337 337 337 337 337 337
333 336 338 342 335 335 334 334 336 336 336 337 338 338 339 341 340 338 336 338 343 342 341 341 341 339 336 334 334 336 338 341
335 336 339 338 335 336 337 334 335 337 337 338 338 338 339 340 342 341 341 344 347 346 346 343 341 336 335 334 332 336 339 340
336 337 338 338 335 337 340 343 340 339 342 344 342 341 342 342 343 343 344 347 347 345 343 341 339 338 333 330 331 333 334 336
335 334 334 333 333 335 335 338 342 342 344 347 346 347 348 348 347 345 347 346 344 340 340 340 339 336 333 332 330 333 334 335
333 333 333 332 332 334 337 338 344 345 346 346 345 345 346 346 345 345 343 339 338 338 338 338 337 334 334 334 330 328 324 329
332 332 328 329 334 336 337 336 339 343 343 341 342 339 340 341 341 340 339 339 336 335 332 330 333 334 331 333 333 329 324 323
328 327 327 327 329 329 333 334 336 336 330 338 334 335 333 335 334 331 330 329 328 325 321 322 322 324 329 320 328 324 330 323

GFSFLT2_sfc_thetae_165.txt.gz
Theta_e
356 355 360 360 359 359 358 358 358 358 359 359 358 357 357 355 356 358 358 359 357 358 358 358 356 353 352 351 350 350 351 352
356 355 357 360 359 359 358 358 358 358 358 358 358 356 355 355 355 355 356 356 356 356 356 357 355 352 351 351 351 351 351 350
356 357 356 360 358 358 358 358 358 358 358 358 358 357 355 354 354 355 355 355 355 354 353 353 353 352 352 352 352 352 350 349
357 357 355 354 356 358 358 358 358 358 359 359 358 357 356 354 354 354 355 354 354 354 353 353 353 353 353 352 352 352 351 349
356 355 354 354 351 352 353 357 358 358 359 358 357 356 355 354 353 352 352 352 352 353 352 352 353 353 353 352 351 351 350 349
353 354 354 352 353 352 351 354 356 357 358 357 356 355 351 348 348 348 348 348 350 351 351 352 353 353 352 352 352 349 348 341
349 351 352 352 352 352 349 354 352 351 351 353 353 353 351 350 351 349 349 350 351 351 352 353 354 353 351 345 342 345 342 343
349 351 352 353 354 351 350 353 350 350 350 351 353 354 353 349 351 350 349 347 349 348 347 349 350 349 348 348 346 343 344 345
347 350 353 352 352 353 351 351 351 350 349 347 348 352 351 349 348 347 345 346 349 350 351 351 350 351 351 350 349 346 346 346
344 349 351 352 352 353 352 351 351 351 350 349 349 350 349 347 347 347 346 345 349 350 351 351 351 351 350 349 349 348 347 348
345 347 349 352 353 352 352 352 350 352 353 352 351 350 350 348 348 345 344 343 344 348 348 352 352 350 349 350 349 349 348 348
346 349 350 350 351 350 353 353 351 351 351 352 351 352 350 350 348 347 343 342 341 345 351 353 352 352 352 350 348 347 346 347
346 345 347 346 346 347 352 352 350 351 352 351 351 351 349 348 348 347 344 344 347 350 352 353 353 350 348 347 345 345 346 348
345 346 345 349 348 351 351 350 350 350 349 350 349 346 347 345 345 346 345 348 351 351 353 351 349 349 344 343 343 344 346 347
343 346 347 347 349 350 349 347 345 345 347 348 352 354 353 350 348 348 349 350 351 350 351 350 349 349 345 342 339 339 343 344
343 344 345 344 348 348 347 347 348 347 351 352 350 349 346 347 348 348 348 346 344 343 344 344 344 343 341 342 340 336 340 343
341 343 344 345 346 347 348 351 353 351 347 345 347 345 343 340 341 343 342 341 339 342 342 342 342 341 341 341 335 335 329 334
339 341 342 344 346 348 348 348 348 349 348 342 338 338 339 339 337 338 338 337 337 338 335 334 337 338 334 335 338 330 325 321
336 338 340 345 344 346 348 347 343 340 338 340 341 340 335 331 330 331 330 330 329 326 325 325 324 326 329 321 327 321 326 322

GFSFLT2_sfc_thetae_168.txt.gz
Theta_e
355 353 359 361 361 361 361 361 361 361 361 360 359 357 356 355 356 358 358 357 357 358 357 357 355 353 352 351 351 352 352 351
353 354 356 360 360 361 360 360 360 360 360 360 359 357 355 355 356 357 357 357 358 357 357 356 354 352 351 351 351 351 350 350
353 354 354 359 359 359 359 359 359 358 359 359 358 357 355 355 354 355 355 355 355 354 353 353 352 352 351 351 350 350 350 348
354 351 352 353 356 358 358 358 358 358 358 358 357 357 356 354 354 354 354 354 353 353 352 352 353 353 352 352 351 352 350 349
355 353 350 350 348 348 352 359 358 358 359 358 357 356 355 354 353 353 353 353 352 352 351 351 351 351 353 353 352 352 351 350
354 353 350 347 348 346 345 354 358 358 358 358 356 354 349 347 347 347 348 346 349 350 350 351 351 353 353 352 351 353 349 343
351 352 352 350 350 349 345 350 349 353 352 352 352 352 347 349 350 348 348 348 350 351 352 353 354 354 352 349 347 350 344 344
351 353 352 354 354 351 349 347 347 346 349 351 353 353 352 349 349 347 348 346 349 350 350 352 353 352 351 352 350 349 348 348
350 352 355 355 354 353 352 350 350 349 348 348 349 353 351 348 350 350 345 345 351 353 354 353 351 353 354 353 352 350 349 348
350 352 355 356 355 355 356 351 352 352 350 350 351 352 350 349 351 349 349 344 345 352 352 352 354 355 354 353 352 353 351 351
352 351 354 354 357 355 354 356 354 355 355 354 353 353 353 349 351 348 347 343 343 346 349 352 357 356 356 356 353 353 352 351
352 354 354 355 356 357 356 356 354 354 354 354 354 356 353 352 352 350 349 348 347 350 352 358 358 358 355 353 351 351 350 350
353 353 355 352 354 354 358 357 353 355 355 354 352 352 351 351 352 355 355 352 351 354 360 357 357 352 353 348 349 349 350 351
353 354 352 352 352 354 359 357 357 358 351 349 350 352 353 350 351 355 354 351 354 351 354 351 349 350 348 349 345 346 348 347
352 353 351 351 353 356 356 355 350 347 346 353 356 357 359 357 357 357 353 349 349 346 344 343 344 346 347 347 343 342 344 347
352 351 352 351 354 353 349 342 343 343 352 352 353 355 354 353 354 356 348 345 346 346 345 344 345 345 343 348 340 339 340 345
349 350 350 350 353 351 349 351 354 354 351 350 350 349 350 345 349 348 351 343 341 343 343 342 342 341 341 343 335 331 326 329
346 348 348 350 351 352 356 357 353 352 349 348 347 344 346 345 346 347 344 343 340 341 334 335 336 336 332 332 335 324 320 318
344 347 349 350 352 353 355 355 355 349 345 346 345 341 339 341 341 338 338 337 332 331 330 328 326 326 326 321 321 321 323 321

GFSFLT2_sfc_thetae_171.txt.gz
Theta_e
355 353 362 363 363 363 363 362 362 362 362 362 361 359 357 356 356 358 358 357 357 358 357 356 354 352 352 352 352 353 353 353
352 354 359 362 362 362 363 362 361 361 361 360 359 357 356 356 358 358 358 358 359 358 357 356 354 353 352 353 353 353 352 352
351 355 356 361 361 361 361 361 360 360 360 360 359 358 356 356 357 357 357 357 357 355 354 353 353 353 352 352 352 354 353 350
352 350 351 353 358 360 360 360 360 359 359 359 358 357 356 355 355 355 355 355 354 352 351 351 352 353 353 354 354 354 353 350
352 348 347 348 348 351 355 359 359 359 358 358 357 357 356 355 354 353 354 354 352 351 350 350 351 352 354 353 353 352 353 351
349 348 347 345 345 344 346 355 357 357 357 357 355 355 352 348 348 347 350 351 348 349 350 351 352 354 354 353 352 352 353 345
348 347 346 346 346 343 342 348 347 349 348 349 350 350 348 349 349 348 350 347 349 351 353 354 354 354 353 352 347 352 349 346
350 347 346 351 351 345 344 343 345 347 348 351 354 352 352 347 346 342 347 348 350 352 349 350 351 352 351 350 348 347 347 346
350 348 349 351 355 354 348 344 346 343 346 348 349 353 353 347 349 348 343 344 347 349 350 351 348 352 353 351 350 349 350 351
349 349 349 354 356 361 357 349 348 348 347 349 351 352 349 344 348 345 346 342 342 347 350 350 351 352 351 351 351 351 350 352
354 353 352 353 361 355 359 361 353 353 353 351 351 352 351 346 351 345 345 341 342 347 351 352 357 356 355 353 353 354 352 351
353 355 358 358 357 360 357 357 356 354 353 352 352 356 351 352 352 350 346 344 350 356 356 358 357 356 353 351 352 351 351 349
354 358 358 354 355 357 360 358 355 354 352 352 351 352 351 350 354 356 354 355 357 357 357 355 354 351 350 349 347 348 348 350
355 357 358 358 355 357 362 358 358 360 353 349 347 348 351 352 354 356 354 355 358 355 352 349 345 346 344 345 344 347 347 345
355 358 358 356 356 360 357 361 353 353 347 346 351 354 357 356 356 358 358 359 354 349 345 346 347 348 347 346 342 341 347 347
353 355 355 353 356 357 353 350 347 341 344 351 358 360 359 359 358 360 353 351 347 345 347 348 346 346 343 344 339 336 337 347
350 353 352 353 359 359 353 351 345 345 351 353 355 356 353 351 351 351 352 349 349 346 345 344 343 339 339 339 329 327 322 327
349 350 351 356 358 358 355 360 361 357 354 351 351 350 347 348 349 349 347 344 345 345 339 337 335 333 325 328 333 320 314 312
348 350 351 353 356 355 363 360 358 350 347 360 346 342 340 343 342 342 341 339 337 333 333 329 328 329 328 321 321 322 325 322

GFSFLT2_sfc_thetae_174.txt.gz
Theta_e
354 359 363 363 362 362 361 361 361 362 362 362 361 360 358 357 358 359 359 358 358 357 357 355 353 352 351 355 355 356 356 356
352 358 361 362 362 361 362 362 361 361 361 361 360 358 358 358 359 360 359 359 358 358 357 355 354 353 354 355 356 355 355 353
355 354 359 361 362 361 361 361 360 360 360 359 359 358 358 359 359 359 360 360 358 357 354 352 352 354 354 354 354 354 354 352
353 352 356 358 361 361 360 360 360 360 359 359 357 357 357 358 358 358 358 357 355 353 352 351 353 354 354 354 354 354 353 353
347 347 350 354 354 356 357 360 360 359 359 358 357 357 356 356 356 356 355 355 354 352 352 352 353 353 353 353 352 352 353 353
345 344 345 345 349 351 354 357 358 358 357 357 355 356 354 347 349 350 350 354 354 353 353 353 353 353 352 352 352 352 354 345
342 341 341 341 343 345 346 351 350 351 350 349 348 350 347 349 349 345 351 353 353 353 353 353 353 353 353 348 348 356 350 346
345 343 342 343 344 341 342 345 345 346 346 350 353 350 349 351 350 345 346 342 347 350 348 349 348 348 349 350 348 346 347 348
346 343 345 345 346 345 341 343 345 345 347 350 353 354 361 354 352 352 349 348 349 350 350 352 349 353 354 350 349 351 348 350
345 345 345 346 352 346 343 346 344 345 347 349 353 355 356 351 353 352 352 348 346 346 350 352 354 358 355 352 352 352 350 351
345 345 348 348 358 346 344 354 356 350 353 351 353 352 357 354 355 354 350 347 348 348 353 353 359 357 355 354 351 352 350 349
348 349 350 352 359 356 364 358 358 357 354 354 356 357 356 355 356 356 350 350 353 358 358 359 357 356 352 351 350 349 348 348
352 350 352 351 356 360 361 361 357 357 355 357 355 357 355 352 355 356 358 357 358 359 357 354 351 348 348 347 346 346 348 348
355 352 354 353 355 357 360 359 360 358 360 355 353 353 355 352 355 360 358 359 358 356 353 350 347 347 345 346 345 343 345 346
354 355 356 356 357 357 356 358 359 358 357 351 350 355 355 357 358 361 356 354 353 349 347 347 348 348 347 344 341 338 339 342
353 352 354 356 357 356 354 352 350 349 350 352 358 360 357 356 358 355 356 352 350 348 347 346 345 345 343 334 336 331 336 339
350 352 354 355 356 358 355 357 351 347 351 354 353 348 351 353 353 350 349 349 347 347 341 338 337 334 335 330 324 324 317 321
348 350 352 355 354 357 357 355 358 355 353 350 348 345 348 348 347 345 343 343 345 337 332 332 331 328 325 325 323 319 312 311
346 349 353 354 356 356 358 353 353 347 345 348 342 341 342 343 341 340 338 336 334 329 330 328 328 329 324 319 322 325 322 321